QPF
0.00 0.00 0.00 0.00 0.00 0.00 0.00 0.00 0.00 0.00 0.00 0.00 0.00 0.00 0.01 0.01 0.03 0.02 0.01 0.00 0.00 0.00 0.00 0.00 0.00 0.00 0.00 0.00 0.00 0.00 0.00 0.00 0.00 0.00 0.00 0.00 0.00 0.00 0.00 0.00 0.00 0.00 0.00 0.00 0.00 0.00 0.00
0.00 0.00 0.00 0.00 0.00 0.00 0.00 0.00 0.00 0.00 0.00 0.00 0.00 0.00 0.00 0.01 0.02 0.02 0.01 0.00 0.00 0.00 0.00 0.00 0.00 0.00 0.00 0.00 0.00 0.00 0.00 0.00 0.00 0.00 0.00 0.00 0.00 0.00 0.00 0.00 0.01 0.00 0.00 0.00 0.00 0.00 0.00
0.00 0.00 0.00 0.01 0.00 0.00 0.00 0.00 0.00 0.00 0.00 0.00 0.00 0.00 0.00 0.01 0.03 0.05 0.04 0.01 0.00 0.00 0.00 0.00 0.01 0.00 0.00 0.00 0.00 0.00 0.00 0.00 0.00 0.00 0.00 0.00 0.00 0.01 0.01 0.00 0.01 0.00 0.01 0.00 0.00 0.00 0.00
0.00 0.00 0.00 0.00 0.00 0.00 0.01 0.00 0.00 0.00 0.00 0.00 0.00 0.00 0.01 0.05 0.06 0.05 0.04 0.01 0.00 0.00 0.00 0.00 0.01 0.00 0.00 0.00 0.00 0.00 0.00 0.00 0.00 0.00 0.00 0.00 0.02 0.02 0.01 0.02 0.06 0.05 0.04 0.02 0.00 0.00 0.00
0.00 0.00 0.00 0.00 0.00 0.02 0.03 0.01 0.00 0.00 0.00 0.00 0.00 0.00 0.01 0.09 0.09 0.05 0.03 0.01 0.00 0.00 0.00 0.00 0.00 0.00 0.00 0.00 0.00 0.00 0.00 0.00 0.00 0.00 0.00 0.02 0.03 0.02 0.02 0.06 0.18 0.11 0.04 0.01 0.01 0.00 0.02
0.00 0.00 0.00 0.00 0.02 0.03 0.03 0.02 0.01 0.01 0.00 0.00 0.00 0.00 0.00 0.03 0.05 0.05 0.02 0.01 0.00 0.00 0.00 0.00 0.00 0.00 0.00 0.00 0.00 0.00 0.00 0.00 0.00 0.00 0.00 0.03 0.04 0.02 0.02 0.06 0.16 0.20 0.02 0.01 0.05 0.02 0.02
0.00 0.00 0.00 0.02 0.03 0.03 0.03 0.02 0.01 0.01 0.01 0.00 0.00 0.00 0.00 0.09 0.09 0.05 0.02 0.01 0.01 0.00 0.00 0.00 0.00 0.00 0.00 0.00 0.00 0.00 0.00 0.00 0.00 0.01 0.01 0.03 0.02 0.01 0.02 0.04 0.08 0.22 0.08 0.03 0.05 0.06 0.02
0.00 0.00 0.02 0.04 0.04 0.05 0.03 0.02 0.02 0.01 0.01 0.01 0.00 0.00 0.00 0.09 0.12 0.03 0.01 0.02 0.00 0.00 0.00 0.00 0.00 0.00 0.00 0.00 0.00 0.00 0.00 0.00 0.00 0.00 0.02 0.02 0.01 0.00 0.01 0.02 0.09 0.13 0.06 0.07 0.04 0.05 0.04
0.01 0.01 0.02 0.03 0.04 0.04 0.04 0.03 0.02 0.01 0.02 0.03 0.01 0.00 0.00 0.07 0.15 0.02 0.00 0.01 0.00 0.00 0.00 0.00 0.00 0.00 0.00 0.00 0.00 0.00 0.00 0.00 0.00 0.00 0.01 0.02 0.00 0.01 0.07 0.20 0.07 0.07 0.01 0.02 0.08 0.09 0.01
0.01 0.01 0.01 0.03 0.04 0.04 0.03 0.04 0.03 0.03 0.03 0.02 0.02 0.01 0.00 0.11 0.13 0.00 0.00 0.00 0.00 0.00 0.00 0.00 0.00 0.00 0.00 0.00 0.00 0.00 0.00 0.00 0.00 0.00 0.01 0.01 0.00 0.02 0.07 0.31 0.04 0.02 0.01 0.06 0.19 0.13 0.04
0.01 0.00 0.00 0.01 0.03 0.03 0.03 0.04 0.03 0.03 0.02 0.02 0.02 0.01 0.01 0.06 0.04 0.00 0.00 0.00 0.00 0.00 0.01 0.00 0.00 0.00 0.00 0.00 0.01 0.01 0.00 0.00 0.01 0.02 0.06 0.04 0.02 0.01 0.01 0.12 0.03 0.02 0.02 0.05 0.05 0.01 0.01
0.00 0.00 0.00 0.01 0.03 0.03 0.03 0.03 0.04 0.02 0.02 0.02 0.01 0.02 0.02 0.06 0.03 0.01 0.01 0.01 0.00 0.01 0.01 0.00 0.00 0.00 0.00 0.00 0.00 0.00 0.01 0.00 0.02 0.07 0.02 0.01 0.00 0.00 0.00 0.00 0.03 0.04 0.01 0.01 0.00 0.00 0.04
0.00 0.00 0.00 0.04 0.04 0.03 0.04 0.05 0.03 0.03 0.04 0.04 0.01 0.02 0.04 0.07 0.03 0.02 0.06 0.02 0.01 0.02 0.00 0.00 0.00 0.00 0.00 0.00 0.00 0.00 0.00 0.00 0.02 0.02 0.01 0.01 0.03 0.16 0.08 0.04 0.05 0.01 0.00 0.01 0.01 0.01 0.09
0.00 0.00 0.04 0.05 0.05 0.06 0.05 0.03 0.03 0.06 0.15 0.21 0.09 0.03 0.07 0.06 0.02 0.08 0.08 0.01 0.04 0.01 0.00 0.00 0.00 0.00 0.00 0.00 0.00 0.00 0.01 0.00 0.00 0.00 0.00 0.01 0.11 0.22 0.08 0.03 0.01 0.00 0.00 0.00 0.00 0.02 0.11
0.00 0.03 0.06 0.05 0.07 0.06 0.03 0.03 0.05 0.16 0.31 0.15 0.04 0.11 0.13 0.02 0.05 0.12 0.03 0.03 0.01 0.00 0.00 0.00 0.00 0.00 0.00 0.00 0.00 0.02 0.01 0.00 0.00 0.00 0.01 0.02 0.10 0.13 0.06 0.01 0.00 0.00 0.00 0.00 0.00 0.02 0.02
0.01 0.06 0.05 0.06 0.06 0.03 0.02 0.03 0.08 0.20 0.43 0.07 0.00 0.15 0.16 0.07 0.14 0.12 0.06 0.02 0.00 0.00 0.00 0.00 0.00 0.00 0.00 0.00 0.00 0.00 0.00 0.02 0.02 0.00 0.01 0.00 0.01 0.01 0.00 0.00 0.00 0.00 0.00 0.00 0.00 0.00 0.01
0.03 0.07 0.05 0.06 0.04 0.02 0.01 0.03 0.08 0.18 0.32 0.01 0.01 0.13 0.29 0.25 0.22 0.12 0.08 0.01 0.00 0.00 0.00 0.00 0.00 0.00 0.00 0.00 0.00 0.00 0.03 0.07 0.01 0.00 0.00 0.00 0.00 0.00 0.00 0.00 0.00 0.00 0.00 0.00 0.00 0.00 0.00
0.04 0.05 0.04 0.05 0.03 0.01 0.01 0.03 0.02 0.17 0.27 0.13 0.04 0.10 0.27 0.22 0.17 0.09 0.02 0.00 0.00 0.00 0.00 0.00 0.00 0.00 0.00 0.00 0.00 0.00 0.00 0.00 0.00 0.00 0.00 0.00 0.00 0.00 0.00 0.00 0.00 0.00 0.00 0.00 0.00 0.00 0.00
0.02 0.04 0.03 0.03 0.02 0.01 0.01 0.02 0.02 0.14 0.14 0.08 0.08 0.15 0.27 0.16 0.13 0.02 0.00 0.00 0.00 0.00 0.00 0.00 0.00 0.00 0.00 0.00 0.00 0.00 0.00 0.00 0.00 0.00 0.00 0.00 0.00 0.00 0.00 0.00 0.00 0.00 0.00 0.00 0.00 0.00 0.00
0.03 0.04 0.02 0.02 0.03 0.02 0.02 0.01 0.05 0.11 0.04 0.02 0.06 0.14 0.21 0.21 0.07 0.00 0.01 0.00 0.00 0.00 0.00 0.00 0.00 0.00 0.00 0.00 0.00 0.00 0.00 0.00 0.00 0.00 0.00 0.00 0.00 0.00 0.00 0.00 0.00 0.00 0.00 0.00 0.00 0.00 0.00
0.04 0.03 0.02 0.02 0.02 0.02 0.02 0.02 0.13 0.03 0.02 0.03 0.07 0.10 0.06 0.07 0.01 0.01 0.01 0.00 0.00 0.00 0.00 0.00 0.00 0.00 0.00 0.00 0.00 0.00 0.00 0.00 0.00 0.00 0.00 0.00 0.00 0.00 0.00 0.00 0.00 0.00 0.00 0.00 0.00 0.00 0.00
0.03 0.02 0.01 0.01 0.01 0.01 0.01 0.01 0.15 0.10 0.04 0.03 0.03 0.06 0.05 0.01 0.00 0.04 0.00 0.00 0.00 0.00 0.00 0.00 0.00 0.00 0.00 0.00 0.00 0.00 0.00 0.00 0.00 0.00 0.00 0.00 0.00 0.00 0.00 0.00 0.00 0.00 0.00 0.00 0.00 0.00 0.00
0.01 0.01 0.01 0.00 0.01 0.01 0.00 0.00 0.01 0.01 0.04 0.02 0.01 0.01 0.01 0.00 0.00 0.01 0.00 0.00 0.00 0.00 0.00 0.00 0.00 0.00 0.00 0.00 0.00 0.00 0.00 0.00 0.00 0.00 0.00 0.00 0.00 0.00 0.00 0.00 0.00 0.00 0.00 0.00 0.00 0.00 0.00
0.01 0.01 0.00 0.01 0.00 0.00 0.00 0.00 0.00 0.01 0.00 0.00 0.00 0.00 0.00 0.00 0.00 0.00 0.00 0.00 0.00 0.00 0.00 0.00 0.00 0.00 0.00 0.00 0.00 0.00 0.00 0.00 0.00 0.00 0.00 0.00 0.00 0.00 0.00 0.00 0.00 0.00 0.00 0.00 0.00 0.00 0.00
0.01 0.00 0.01 0.01 0.00 0.00 0.00 0.00 0.00 0.00 0.00 0.00 0.00 0.00 0.00 0.00 0.00 0.00 0.00 0.00 0.00 0.00 0.00 0.00 0.00 0.00 0.00 0.00 0.00 0.00 0.00 0.00 0.00 0.00 0.00 0.00 0.00 0.00 0.00 0.00 0.00 0.00 0.00 0.00 0.00 0.00 0.00
0.00 0.00 0.00 0.00 0.00 0.00 0.00 0.00 0.01 0.00 0.00 0.00 0.00 0.00 0.00 0.00 0.00 0.00 0.00 0.00 0.00 0.00 0.00 0.00 0.00 0.00 0.00 0.00 0.00 0.00 0.00 0.00 0.00 0.00 0.00 0.00 0.00 0.00 0.00 0.00 0.00 0.00 0.00 0.00 0.00 0.00 0.00
0.00 0.00 0.00 0.00 0.00 0.00 0.00 0.01 0.01 0.00 0.00 0.00 0.00 0.00 0.00 0.00 0.00 0.00 0.00 0.00 0.00 0.00 0.00 0.00 0.00 0.00 0.00 0.00 0.00 0.00 0.00 0.00 0.00 0.00 0.00 0.00 0.00 0.00 0.00 0.00 0.00 0.00 0.00 0.00 0.00 0.00 0.00
0.00 0.00 0.00 0.00 0.00 0.00 0.03 0.00 0.00 0.00 0.00 0.00 0.00 0.00 0.00 0.00 0.00 0.00 0.00 0.00 0.00 0.00 0.00 0.00 0.00 0.00 0.00 0.00 0.00 0.00 0.00 0.00 0.00 0.00 0.00 0.00 0.00 0.00 0.00 0.00 0.00 0.00 0.00 0.00 0.00 0.00 0.00
0.00 0.00 0.00 0.00 0.00 0.01 0.04 0.00 0.00 0.00 0.00 0.00 0.00 0.00 0.00 0.00 0.00 0.00 0.00 0.00 0.00 0.00 0.00 0.00 0.00 0.00 0.00 0.00 0.00 0.00 0.00 0.00 0.00 0.00 0.00 0.00 0.00 0.00 0.00 0.00 0.00 0.00 0.00 0.00 0.00 0.00 0.00
MSLP
1023.68 1023.28 1022.99 1022.48 1022.13 1021.52 1021.03 1020.46 1020.08 1019.59 1019.14 1018.56 1017.99 1017.47 1016.90 1016.43 1015.64 1015.86 1016.29 1016.64 1016.91 1017.25 1017.52 1017.58 1017.58 1017.83 1017.69 1017.23 1016.23 1015.81 1016.15 1015.96 1016.06 1016.32 1016.20 1016.22 1016.12 1015.82 1015.35 1014.80 1014.68 1014.11 1013.15 1012.67 1012.21 1011.89 1011.37
1023.34 1023.00 1022.68 1022.42 1022.06 1021.55 1021.04 1020.31 1019.87 1019.58 1018.87 1018.32 1017.69 1017.21 1016.67 1015.85 1014.74 1015.54 1015.96 1016.37 1016.40 1017.11 1017.43 1017.58 1017.49 1017.67 1017.64 1016.85 1016.12 1015.89 1016.06 1016.00 1015.92 1016.19 1016.17 1016.18 1015.89 1015.92 1015.64 1015.26 1014.99 1013.83 1013.37 1012.77 1012.39 1011.81 1011.43
1023.17 1022.94 1022.57 1022.19 1021.72 1021.29 1020.84 1020.26 1019.71 1019.21 1018.79 1018.15 1017.38 1016.88 1016.28 1015.89 1014.46 1015.28 1015.92 1016.24 1016.46 1016.62 1017.13 1017.34 1017.45 1017.35 1017.29 1015.95 1016.14 1016.00 1016.22 1015.82 1015.85 1015.90 1015.86 1015.87 1015.96 1016.00 1015.52 1015.32 1014.95 1014.82 1013.93 1012.93 1011.96 1011.75 1011.19
1022.94 1022.57 1022.20 1021.81 1021.35 1020.87 1020.49 1019.91 1019.44 1018.84 1018.24 1017.91 1017.36 1016.70 1016.23 1015.39 1014.64 1014.92 1015.72 1015.80 1016.04 1016.56 1016.80 1016.98 1017.30 1017.50 1016.49 1015.93 1016.01 1016.01 1015.85 1015.64 1015.76 1015.76 1015.81 1015.69 1015.82 1015.74 1015.60 1015.49 1015.07 1014.59 1014.14 1012.52 1010.88 1011.26 1010.79
1022.68 1022.26 1021.80 1021.34 1020.78 1020.35 1019.96 1019.55 1019.13 1018.62 1018.02 1017.54 1017.13 1016.63 1016.12 1014.92 1014.63 1015.06 1015.57 1016.01 1016.25 1016.51 1016.36 1016.73 1017.11 1017.03 1016.03 1015.71 1015.80 1015.59 1015.76 1015.53 1015.48 1015.48 1015.43 1015.43 1015.52 1015.31 1015.29 1015.37 1015.04 1014.02 1012.62 1011.73 1010.95 1010.42 1010.46
1022.31 1021.70 1021.45 1020.83 1020.63 1019.96 1019.38 1018.93 1018.39 1018.15 1017.67 1017.06 1016.83 1016.50 1015.98 1015.11 1014.45 1014.90 1015.62 1016.16 1016.08 1016.55 1016.57 1016.64 1016.99 1017.28 1015.70 1015.35 1015.32 1015.51 1015.74 1015.76 1015.40 1015.28 1015.10 1015.10 1015.15 1014.82 1014.81 1014.82 1013.91 1012.67 1012.25 1011.23 1010.46 1009.57 1010.11
1021.88 1021.51 1020.97 1020.58 1020.12 1019.41 1018.90 1018.20 1017.94 1017.61 1017.31 1016.91 1016.40 1016.25 1015.99 1015.66 1014.47 1014.93 1015.59 1016.25 1016.80 1016.82 1016.17 1015.45 1015.52 1015.43 1015.25 1015.28 1015.50 1015.38 1015.52 1015.51 1015.35 1015.03 1014.38 1014.50 1014.58 1013.89 1013.52 1013.99 1013.47 1013.24 1012.43 1011.17 1010.45 1010.09 1009.59
1021.62 1021.12 1020.61 1019.99 1019.63 1019.01 1018.46 1017.89 1017.50 1017.01 1016.79 1016.34 1016.01 1015.91 1015.81 1015.20 1014.95 1014.89 1015.43 1015.59 1015.35 1015.10 1015.19 1015.26 1015.61 1015.20 1015.34 1015.27 1015.20 1015.21 1015.52 1015.37 1014.96 1014.42 1014.59 1014.58 1013.58 1012.96 1013.22 1013.10 1013.02 1012.66 1011.99 1010.81 1010.39 1009.81 1009.81
1021.29 1020.82 1020.30 1019.76 1019.07 1018.59 1017.93 1017.37 1016.93 1016.57 1016.24 1015.88 1015.72 1015.46 1015.49 1015.30 1014.51 1015.11 1015.09 1015.17 1015.13 1014.97 1014.59 1014.90 1014.83 1014.85 1014.88 1015.33 1014.75 1014.75 1015.28 1014.91 1014.46 1014.33 1014.33 1014.21 1012.97 1012.84 1012.54 1012.55 1012.30 1011.66 1010.72 1010.52 1010.62 1010.45 1010.74
1020.93 1020.41 1020.03 1019.32 1018.71 1018.00 1017.37 1016.83 1016.35 1015.94 1015.67 1015.39 1015.33 1015.22 1015.23 1015.17 1014.94 1014.88 1014.97 1014.86 1014.85 1014.81 1014.57 1014.59 1014.49 1014.15 1014.91 1014.92 1014.69 1014.62 1014.92 1014.85 1014.46 1014.35 1014.16 1013.86 1012.92 1012.49 1012.02 1011.69 1011.17 1010.54 1010.36 1010.79 1011.02 1010.76 1010.67
1020.60 1019.65 1019.23 1018.67 1017.97 1017.36 1016.63 1016.16 1015.61 1015.13 1014.88 1014.73 1014.71 1014.77 1014.80 1015.02 1015.01 1014.65 1014.13 1014.29 1014.71 1014.73 1014.69 1014.65 1014.21 1014.29 1014.51 1014.63 1014.47 1014.54 1014.61 1014.75 1014.42 1014.35 1014.54 1013.54 1012.63 1012.00 1011.63 1011.50 1010.65 1010.14 1010.32 1010.46 1010.36 1009.89 1010.26
1019.73 1019.13 1018.62 1017.85 1017.30 1016.70 1015.96 1015.23 1014.74 1014.22 1013.76 1013.69 1013.67 1013.88 1014.05 1014.37 1014.65 1014.36 1014.20 1014.30 1014.50 1014.63 1014.34 1014.35 1014.21 1014.25 1014.38 1014.17 1014.14 1014.21 1014.24 1014.63 1014.28 1014.07 1013.53 1013.01 1012.39 1011.93 1011.81 1011.34 1010.75 1010.25 1009.62 1009.72 1009.56 1009.38 1009.75
1019.24 1018.71 1018.00 1017.28 1016.55 1015.74 1015.03 1014.31 1013.55 1012.83 1012.48 1012.41 1012.47 1012.91 1013.32 1013.66 1013.40 1013.87 1014.28 1014.61 1014.31 1013.89 1014.46 1013.96 1013.76 1013.79 1013.48 1013.64 1013.59 1013.73 1013.93 1013.70 1013.82 1013.53 1013.01 1012.55 1012.48 1012.39 1012.14 1011.19 1010.60 1010.06 1009.15 1009.08 1008.92 1008.87 1009.90
1018.75 1018.13 1017.53 1016.77 1015.90 1014.97 1014.19 1013.30 1012.28 1011.40 1010.72 1010.12 1009.62 1010.13 1011.56 1012.34 1012.89 1013.53 1014.20 1013.94 1013.30 1013.03 1013.17 1013.00 1012.86 1013.14 1012.93 1013.02 1013.43 1013.55 1013.53 1013.24 1013.09 1012.87 1012.64 1012.42 1012.37 1012.38 1011.56 1010.96 1010.03 1009.51 1009.03 1008.06 1007.87 1008.57 1009.87
1018.39 1017.73 1017.12 1016.17 1015.21 1014.26 1013.41 1012.45 1011.30 1010.25 1008.70 1006.44 1005.23 1007.44 1010.30 1011.07 1012.30 1013.09 1013.76 1012.96 1012.03 1012.19 1012.13 1011.94 1012.54 1012.54 1012.40 1012.55 1012.72 1013.11 1013.38 1012.85 1012.65 1012.50 1012.41 1011.84 1011.81 1011.74 1011.27 1010.53 1010.19 1009.15 1008.56 1008.31 1007.91 1008.83 1009.33
1017.98 1017.28 1016.49 1015.59 1014.69 1013.80 1012.79 1011.78 1010.58 1009.51 1007.91 1006.94 1006.94 1008.65 1010.20 1011.27 1012.25 1013.40 1013.36 1012.36 1012.18 1011.93 1011.76 1011.56 1011.58 1011.65 1011.33 1011.98 1012.13 1012.68 1012.93 1013.01 1012.66 1012.16 1012.02 1011.60 1011.29 1011.15 1010.82 1010.57 1009.87 1009.08 1008.68 1008.17 1007.98 1008.16 1009.27
1017.71 1016.90 1016.16 1015.16 1014.33 1013.40 1012.36 1011.42 1010.36 1009.56 1008.68 1008.28 1008.41 1010.04 1011.45 1011.95 1012.74 1013.30 1012.66 1012.17 1011.87 1011.77 1011.54 1011.60 1011.19 1010.90 1010.98 1011.28 1011.69 1012.00 1012.91 1012.86 1012.48 1011.98 1011.72 1011.40 1010.97 1010.80 1010.52 1010.53 1009.95 1009.05 1008.46 1008.47 1008.39 1008.78 1008.70
1017.35 1016.67 1015.72 1014.89 1014.12 1012.99 1012.10 1011.02 1010.13 1009.29 1009.31 1009.27 1009.56 1011.11 1012.91 1012.92 1013.49 1013.20 1012.58 1012.15 1011.84 1011.85 1011.62 1011.32 1010.95 1010.76 1010.46 1010.93 1011.44 1011.70 1012.14 1012.36 1012.24 1012.00 1011.46 1011.28 1010.92 1010.67 1010.71 1010.80 1010.74 1010.22 1009.29 1008.74 1008.10 1009.01 1009.34
1017.07 1016.40 1015.34 1014.57 1013.91 1012.83 1012.00 1011.15 1010.22 1009.89 1009.92 1010.13 1010.95 1012.10 1013.12 1012.96 1012.97 1012.72 1012.48 1012.10 1011.71 1011.72 1011.58 1011.03 1010.77 1010.58 1010.63 1010.93 1011.25 1011.72 1011.94 1012.04 1011.99 1011.79 1011.57 1011.43 1011.28 1010.91 1010.60 1010.51 1010.21 1009.72 1009.77 1009.62 1009.34 1009.09 1009.63
1016.87 1016.19 1015.30 1014.36 1013.71 1012.83 1012.11 1011.31 1010.60 1010.66 1010.53 1010.56 1011.38 1012.66 1013.71 1013.48 1012.96 1012.37 1012.57 1012.00 1011.76 1011.90 1011.53 1011.26 1010.97 1010.61 1010.63 1011.03 1011.37 1011.75 1011.81 1011.91 1011.92 1011.99 1011.96 1011.61 1011.78 1011.93 1011.52 1011.56 1011.16 1010.52 1010.47 1010.14 1009.61 1009.57 1009.85
1016.75 1016.03 1015.09 1014.30 1013.65 1013.01 1012.50 1011.94 1011.62 1011.18 1010.90 1011.10 1012.05 1012.95 1013.31 1013.51 1013.13 1012.82 1012.80 1012.10 1011.83 1011.90 1011.70 1011.40 1011.09 1010.77 1010.68 1011.05 1011.40 1011.77 1012.09 1012.06 1012.07 1012.05 1011.87 1011.85 1012.31 1012.68 1012.58 1012.35 1011.79 1011.51 1011.29 1011.12 1010.83 1011.10 1010.70
1016.64 1015.96 1015.01 1014.25 1013.62 1013.20 1012.83 1012.64 1012.16 1011.77 1011.63 1011.61 1012.46 1012.92 1013.24 1012.97 1013.11 1013.28 1012.71 1012.22 1012.11 1012.26 1011.89 1011.53 1011.52 1011.61 1011.18 1011.50 1011.80 1011.96 1012.08 1012.27 1012.35 1012.15 1012.29 1012.58 1012.98 1013.05 1012.58 1012.48 1012.20 1012.20 1012.24 1012.18 1012.00 1011.96 1012.06
1016.42 1015.77 1015.00 1014.18 1013.48 1013.04 1012.73 1012.38 1012.00 1011.78 1011.87 1012.16 1012.81 1013.01 1012.73 1013.14 1013.13 1013.16 1012.91 1012.53 1012.31 1012.12 1012.47 1012.32 1011.86 1011.72 1012.02 1012.73 1012.43 1012.48 1012.36 1012.67 1012.75 1012.75 1012.75 1012.86 1013.06 1013.27 1013.21 1013.00 1012.41 1012.30 1013.12 1013.16 1013.00 1012.92 1012.81
1016.23 1015.50 1014.94 1014.17 1013.63 1013.02 1012.59 1012.23 1011.83 1011.68 1011.80 1012.40 1013.05 1012.91 1012.44 1013.22 1013.31 1013.84 1013.29 1012.80 1012.78 1012.57 1012.67 1013.15 1012.74 1012.39 1013.65 1013.49 1013.32 1012.98 1012.93 1013.01 1013.06 1013.24 1013.27 1013.06 1013.23 1013.52 1013.53 1013.09 1013.02 1013.57 1013.67 1013.72 1013.47 1013.48 1013.80
1016.14 1015.49 1014.89 1014.32 1013.67 1013.04 1012.39 1011.82 1011.56 1011.90 1011.97 1012.62 1013.45 1013.16 1012.59 1013.42 1014.20 1014.47 1014.11 1013.72 1013.58 1013.47 1013.65 1013.74 1013.82 1013.85 1013.77 1013.38 1013.11 1013.17 1013.18 1013.16 1013.55 1013.82 1013.54 1013.37 1013.38 1013.56 1013.35 1013.10 1013.83 1014.11 1014.33 1014.34 1014.18 1014.26 1014.31
1016.04 1015.33 1014.70 1014.08 1013.47 1012.83 1012.09 1011.44 1011.97 1012.30 1012.29 1012.93 1013.87 1013.88 1013.16 1013.54 1015.99 1016.31 1015.27 1014.63 1014.24 1014.34 1014.61 1014.74 1014.55 1014.31 1013.95 1013.58 1013.40 1013.56 1013.83 1014.28 1014.20 1014.19 1014.13 1013.84 1013.53 1013.03 1013.29 1013.23 1013.45 1014.15 1014.74 1015.04 1015.13 1014.76 1015.02
1016.06 1015.40 1014.82 1014.23 1013.61 1013.02 1012.38 1012.38 1012.74 1012.75 1012.80 1013.24 1014.31 1014.52 1013.96 1014.95 1017.04 1016.97 1016.38 1015.96 1015.45 1015.14 1015.17 1015.33 1014.83 1014.36 1014.24 1013.85 1013.88 1014.22 1014.64 1015.15 1014.68 1014.49 1014.38 1013.95 1013.79 1013.68 1013.73 1013.65 1013.92 1014.51 1015.02 1015.42 1015.49 1015.71 1015.54
1015.96 1015.49 1014.93 1014.48 1014.05 1013.52 1013.37 1013.30 1013.40 1013.46 1013.55 1013.77 1014.95 1014.90 1014.52 1015.81 1017.65 1017.72 1017.45 1016.96 1016.36 1016.02 1015.47 1015.77 1015.43 1014.79 1014.63 1014.49 1014.53 1014.87 1014.94 1015.51 1015.42 1015.41 1015.12 1014.72 1014.40 1014.29 1014.43 1014.25 1014.40 1014.88 1015.45 1015.50 1015.44 1015.71 1015.93
1015.85 1015.46 1014.98 1014.62 1014.24 1013.89 1013.84 1013.86 1014.00 1014.17 1014.11 1014.17 1014.73 1015.21 1015.12 1015.46 1017.83 1018.23 1018.23 1018.16 1018.06 1017.57 1016.86 1016.39 1015.98 1015.61 1015.40 1015.08 1015.25 1015.42 1015.52 1015.83 1015.73 1015.32 1015.80 1015.50 1015.04 1014.75 1014.80 1014.41 1014.77 1015.24 1015.49 1015.76 1016.00 1016.00 1016.54
Thickness
5559 5556 5552 5551 5548 5549 5550 5550 5549 5550 5549 5551 5552 5554 5558 5559 5564 5560 5556 5553 5549 5544 5539 5535 5533 5527 5525 5523 5524 5525 5517 5513 5509 5504 5501 5497 5494 5495 5496 5500 5497 5499 5517 5522 5531 5536 5547
5552 5547 5544 5539 5535 5534 5532 5533 5532 5531 5535 5537 5540 5541 5546 5551 5558 5551 5547 5544 5544 5535 5529 5525 5524 5518 5515 5512 5516 5513 5506 5501 5497 5489 5485 5482 5481 5479 5477 5479 5477 5498 5503 5511 5518 5530 5539
5538 5533 5529 5525 5521 5519 5516 5516 5515 5515 5516 5520 5526 5528 5534 5537 5548 5541 5536 5533 5530 5528 5522 5517 5514 5512 5506 5513 5505 5501 5492 5490 5484 5478 5474 5471 5466 5464 5468 5464 5470 5470 5480 5498 5513 5522 5533
5526 5521 5516 5510 5506 5502 5499 5498 5498 5501 5501 5502 5508 5514 5517 5526 5533 5532 5525 5524 5522 5517 5515 5511 5506 5502 5504 5503 5496 5489 5482 5478 5473 5469 5464 5461 5458 5459 5457 5461 5464 5470 5472 5486 5521 5520 5535
5510 5504 5500 5496 5493 5487 5484 5481 5480 5482 5486 5486 5489 5495 5501 5512 5517 5516 5514 5511 5510 5507 5509 5504 5500 5497 5498 5495 5489 5482 5472 5468 5464 5459 5454 5454 5454 5457 5462 5457 5459 5473 5491 5496 5508 5524 5530
5496 5493 5486 5481 5473 5470 5467 5465 5464 5462 5467 5470 5472 5475 5483 5492 5503 5504 5501 5498 5501 5499 5498 5496 5493 5487 5494 5491 5483 5473 5462 5456 5454 5449 5449 5450 5450 5458 5463 5462 5481 5497 5497 5502 5499 5527 5531
5484 5477 5471 5462 5456 5452 5448 5446 5441 5442 5444 5449 5453 5454 5460 5471 5486 5490 5489 5486 5487 5489 5494 5506 5501 5494 5489 5482 5473 5466 5456 5450 5446 5445 5452 5454 5453 5465 5485 5469 5479 5472 5488 5503 5507 5517 5538
5470 5460 5454 5445 5437 5430 5425 5422 5419 5421 5422 5427 5433 5436 5437 5454 5465 5475 5478 5482 5490 5497 5500 5495 5489 5486 5480 5475 5469 5461 5452 5446 5445 5452 5450 5455 5468 5488 5484 5485 5483 5482 5493 5513 5515 5528 5540
5452 5442 5434 5426 5418 5411 5407 5405 5402 5402 5403 5407 5412 5416 5419 5432 5449 5461 5470 5475 5481 5488 5500 5495 5490 5483 5479 5471 5473 5467 5456 5454 5457 5460 5460 5460 5487 5486 5488 5480 5487 5493 5517 5522 5518 5524 5529
5436 5426 5416 5408 5402 5396 5391 5388 5387 5387 5387 5391 5396 5400 5405 5416 5432 5448 5457 5467 5474 5483 5487 5494 5488 5485 5474 5474 5471 5472 5465 5465 5466 5467 5471 5470 5488 5491 5495 5487 5508 5517 5525 5512 5510 5522 5537
5424 5416 5404 5396 5389 5383 5381 5379 5377 5378 5379 5382 5386 5391 5396 5405 5418 5437 5454 5462 5468 5481 5496 5485 5482 5481 5478 5478 5479 5475 5474 5468 5469 5471 5465 5485 5494 5503 5504 5495 5517 5523 5520 5520 5525 5540 5544
5415 5405 5395 5388 5381 5376 5375 5374 5372 5374 5377 5378 5382 5386 5391 5398 5409 5428 5443 5455 5468 5478 5486 5471 5478 5476 5476 5482 5482 5480 5481 5473 5477 5473 5480 5494 5505 5508 5508 5511 5516 5519 5532 5532 5539 5546 5549
5405 5393 5386 5381 5376 5374 5373 5371 5373 5377 5378 5381 5382 5383 5389 5393 5409 5424 5436 5449 5469 5483 5465 5471 5479 5481 5492 5487 5491 5488 5482 5488 5485 5492 5503 5505 5496 5497 5497 5516 5521 5528 5541 5534 5542 5548 5548
5395 5386 5379 5375 5373 5373 5374 5376 5382 5387 5389 5390 5396 5400 5398 5400 5406 5422 5436 5460 5477 5481 5468 5483 5492 5490 5496 5496 5485 5488 5491 5495 5498 5503 5506 5509 5515 5497 5513 5521 5530 5537 5541 5554 5556 5555 5546
5387 5379 5373 5372 5373 5377 5379 5384 5391 5392 5398 5410 5425 5413 5400 5407 5418 5430 5444 5470 5490 5476 5485 5495 5491 5495 5499 5498 5497 5484 5483 5505 5505 5507 5509 5517 5514 5511 5520 5530 5536 5544 5546 5553 5555 5548 5558
5382 5375 5372 5372 5375 5380 5387 5392 5397 5395 5404 5412 5414 5404 5410 5419 5428 5433 5450 5473 5477 5476 5485 5499 5502 5503 5511 5505 5508 5501 5496 5495 5501 5510 5512 5520 5522 5528 5530 5533 5541 5549 5554 5560 5559 5560 5549
5377 5372 5369 5373 5380 5387 5394 5399 5404 5408 5413 5418 5424 5416 5416 5425 5431 5438 5460 5470 5474 5478 5489 5497 5501 5509 5512 5511 5513 5511 5492 5497 5510 5516 5518 5524 5532 5533 5538 5534 5540 5554 5560 5558 5563 5559 5570
5375 5369 5371 5379 5386 5396 5402 5409 5416 5421 5422 5430 5432 5428 5416 5427 5431 5441 5462 5467 5477 5482 5489 5498 5507 5511 5519 5517 5515 5516 5514 5509 5515 5519 5525 5529 5537 5534 5537 5538 5537 5542 5555 5562 5576 5557 5555
5372 5368 5377 5388 5393 5402 5409 5416 5424 5425 5427 5431 5431 5429 5425 5435 5445 5451 5461 5472 5481 5487 5494 5505 5510 5515 5519 5519 5520 5519 5518 5520 5520 5521 5528 5533 5536 5540 5544 5550 5551 5557 5554 5554 5559 5565 5556
5371 5372 5385 5396 5401 5409 5416 5424 5428 5429 5434 5439 5439 5435 5426 5433 5447 5463 5460 5478 5483 5486 5497 5504 5510 5519 5524 5522 5523 5521 5524 5524 5525 5525 5523 5532 5531 5531 5547 5536 5543 5553 5552 5556 5564 5568 5568
5377 5383 5396 5404 5410 5415 5420 5428 5433 5438 5442 5445 5438 5436 5438 5443 5448 5455 5460 5482 5489 5495 5501 5509 5517 5524 5529 5526 5526 5525 5524 5527 5530 5528 5534 5539 5528 5520 5530 5531 5538 5543 5546 5551 5551 5551 5562
5388 5396 5407 5413 5419 5423 5430 5434 5442 5446 5448 5450 5445 5446 5445 5457 5456 5449 5470 5486 5491 5493 5504 5514 5516 5518 5531 5530 5530 5528 5530 5531 5530 5537 5534 5533 5527 5527 5533 5537 5541 5539 5542 5545 5547 5547 5548
5407 5415 5423 5429 5435 5439 5444 5449 5454 5457 5457 5456 5451 5451 5463 5458 5463 5462 5476 5489 5495 5502 5502 5508 5521 5528 5528 5520 5526 5527 5531 5528 5529 5534 5533 5533 5531 5531 5533 5532 5543 5552 5536 5539 5541 5541 5546
5428 5436 5440 5446 5451 5455 5458 5462 5467 5470 5469 5465 5460 5465 5478 5465 5477 5465 5480 5493 5496 5500 5509 5503 5516 5527 5512 5514 5519 5528 5530 5530 5531 5529 5529 5534 5531 5524 5532 5537 5545 5535 5531 5530 5539 5539 5536
5446 5452 5456 5458 5464 5468 5473 5478 5480 5479 5478 5473 5467 5475 5486 5476 5477 5478 5484 5487 5495 5498 5498 5500 5504 5509 5513 5522 5529 5529 5530 5533 5528 5524 5529 5532 5533 5527 5538 5541 5532 5526 5526 5531 5535 5538 5530
5458 5464 5469 5474 5477 5483 5489 5493 5488 5485 5485 5481 5473 5474 5489 5498 5469 5452 5483 5495 5504 5502 5501 5498 5503 5507 5515 5524 5528 5524 5527 5519 5527 5529 5526 5530 5534 5543 5536 5538 5545 5532 5522 5519 5520 5537 5519
5468 5474 5481 5486 5490 5494 5497 5496 5491 5491 5490 5488 5480 5479 5491 5483 5459 5462 5487 5492 5490 5500 5504 5501 5508 5518 5516 5526 5526 5525 5522 5509 5528 5528 5527 5532 5532 5533 5533 5537 5538 5526 5520 5516 5531 5533 5514
5479 5485 5490 5493 5496 5499 5499 5497 5495 5494 5494 5493 5484 5486 5495 5483 5466 5467 5470 5485 5497 5503 5520 5508 5516 5520 5523 5525 5526 5520 5526 5516 5521 5515 5524 5530 5534 5532 5526 5531 5536 5521 5518 5530 5527 5509 5511
5488 5493 5499 5501 5502 5504 5503 5501 5499 5497 5497 5498 5497 5492 5494 5497 5478 5474 5475 5478 5480 5486 5504 5503 5515 5515 5519 5527 5521 5518 5522 5512 5520 5536 5508 5528 5531 5536 5533 5540 5522 5515 5518 5510 5507 5512 5499